Weather History for Alicante, Spain

Change the Weather History Date:

Wednesday, March 27, 2013

  Actual Average Record
Temperature  
Mean Temperature 66 °F -  
Max Temperature 76 °F 67 °F 76 °F (2013)
Min Temperature 55 °F 50 °F 42 °F (1997)
Growing Degree Days 16 (Base 50)    
Moisture  
Dew Point 47 °F    
Average Humidity 52    
Maximum Humidity 82    
Minimum Humidity 20    
Precipitation  
Precipitation 0.00 in - - ()
Sea Level Pressure  
Sea Level Pressure 29.64 in    
Wind  
Wind Speed 6 mph ()    
Max Wind Speed 16 mph    
Max Gust Speed 26 mph    
Visibility 6.6 miles    
Events      
Averages and records for this station are not official NWS values.
T = Trace of Precipitation, MM = Missing Value Source: Averaged Metar Reports

Daily Weather History Graph

Daily Weather History Graph

Search for Another Location

Airport:

Trip Planner

Search our weather history database for the weather conditions in past years. The results will help you decide how hot, cold, wet, or windy it might be!

Date:

Astronomy

Mar. 27, 2013 Rise Set
Actual Time 6:54 AM CET 7:20 PM CET
Civil Twilight 6:28 AM CET 7:47 PM CET
Nautical Twilight 5:57 AM CET 8:18 PM CET
Astronomical Twilight 5:25 AM CET 8:50 PM CET
Moon 7:46 PM CET (3/27) 6:37 AM CET (3/27)
Length of Visible Light 13h 18m
Length of Day
12h 25m
Full, 100% of the Moon is Illuminated
Mar 27
Full
Apr 3
Last Quarter
Apr 10
New
Apr 18
First Quarter
Apr 25
Full

Hourly Weather History & Observations

Time (CET) Temp. Dew Point Humidity Pressure Visibility Wind Dir Wind Speed Gust Speed Precip Events Conditions
12:00 AM 64.4 °F 44.6 °F 49% 29.65 in 6.2 mi Variable 2.3 mph - N/A   Partly Cloudy
12:30 AM 59.0 °F 44.6 °F 59% 29.65 in 6.2 mi SW 5.8 mph - N/A   Partly Cloudy
1:00 AM 58 °F 43 °F 46% 29.67 in 12 mi SSW 5.8 mph - -   Scattered Clouds
1:00 AM 59.0 °F 46.4 °F 63% 29.65 in 6.2 mi SSW 5.8 mph - N/A   Partly Cloudy
1:30 AM 59.0 °F 44.6 °F 59% 29.65 in 6.2 mi WSW 5.8 mph - N/A   Partly Cloudy
2:00 AM 59.0 °F 46.4 °F 63% 29.65 in 6.2 mi WSW 4.6 mph - N/A   Partly Cloudy
2:30 AM 59.0 °F 46.4 °F 63% 29.62 in 6.2 mi Variable 2.3 mph - N/A   Partly Cloudy
3:00 AM 59.0 °F 46.4 °F 63% 29.62 in 6.2 mi West 5.8 mph - N/A   Partly Cloudy
3:30 AM 60.8 °F 46.4 °F 59% 29.62 in 6.2 mi West 5.8 mph - N/A   Partly Cloudy
4:00 AM 60.8 °F 46.4 °F 59% 29.62 in 6.2 mi West 6.9 mph - N/A   Partly Cloudy
4:30 AM 60.8 °F 46.4 °F 59% 29.62 in 6.2 mi WSW 5.8 mph - N/A   Partly Cloudy
5:00 AM 60.8 °F 46.4 °F 59% 29.62 in 6.2 mi West 4.6 mph - N/A   Partly Cloudy
5:30 AM 59.0 °F 50.0 °F 72% 29.62 in 6.2 mi SW 5.8 mph - N/A   Partly Cloudy
6:00 AM 57.2 °F 51.8 °F 82% 29.62 in 6.2 mi West 3.5 mph - N/A   Partly Cloudy
6:30 AM 57.2 °F 50.0 °F 77% 29.62 in 6.2 mi West 3.5 mph - N/A   Partly Cloudy
7:00 AM 57 °F 45 °F 54% 29.64 in 19 mi WSW 6.9 mph - -   Scattered Clouds
7:00 AM 59.0 °F 48.2 °F 67% 29.62 in 6.2 mi WSW 5.8 mph - N/A   Partly Cloudy
7:30 AM 57.2 °F 48.2 °F 72% 29.62 in 6.2 mi Variable 2.3 mph - N/A   Partly Cloudy
8:00 AM 59.0 °F 48.2 °F 67% 29.65 in 6.2 mi West 4.6 mph - N/A   Partly Cloudy
8:30 AM 62.6 °F 48.2 °F 59% 29.65 in 6.2 mi WSW 3.5 mph - N/A   Partly Cloudy
9:00 AM 62.6 °F 50.0 °F 63% 29.65 in 6.2 mi Variable 2.3 mph - N/A   Scattered Clouds
9:30 AM 68.0 °F 48.2 °F 49% 29.65 in 6.2 mi South 3.5 mph - N/A   Partly Cloudy
10:00 AM 68.0 °F 46.4 °F 46% 29.68 in 6.2 mi SW 4.6 mph - N/A   Partly Cloudy
10:30 AM 68.0 °F 46.4 °F 46% 29.68 in 6.2 mi SSW 10.4 mph - N/A   Partly Cloudy
11:00 AM 69.8 °F 44.6 °F 40% 29.68 in 6.2 mi SW 10.4 mph - N/A   Partly Cloudy
11:30 AM 71.6 °F 46.4 °F 41% 29.68 in 6.2 mi SSW 11.5 mph - N/A   Partly Cloudy
12:00 PM 73.4 °F 44.6 °F 36% 29.65 in 6.2 mi SW 13.8 mph - N/A   Scattered Clouds
12:30 PM 73.4 °F 44.6 °F 36% 29.65 in 6.2 mi SW 12.7 mph - N/A   Partly Cloudy
1:00 PM 73 °F 40 °F 20% 29.65 in 22 mi WSW 16.1 mph - -   Scattered Clouds
1:00 PM 73.4 °F 42.8 °F 33% 29.65 in 6.2 mi SW 16.1 mph - N/A   Partly Cloudy
1:30 PM 73.4 °F 42.8 °F 33% 29.65 in 6.2 mi WSW 13.8 mph - N/A   Partly Cloudy
2:00 PM 75.2 °F 44.6 °F 34% 29.62 in 6.2 mi SW 15.0 mph 26.5 mph N/A   Partly Cloudy
2:30 PM 75.2 °F 48.2 °F 38% 29.62 in 6.2 mi SSW 12.7 mph - N/A   Partly Cloudy
3:00 PM 75.2 °F 50.0 °F 41% 29.62 in 6.2 mi South 15.0 mph - N/A   Partly Cloudy
3:30 PM 75.2 °F 48.2 °F 38% 29.59 in 6.2 mi South 12.7 mph - N/A   Partly Cloudy
4:00 PM 75.2 °F 50.0 °F 41% 29.59 in 6.2 mi South 11.5 mph - N/A   Partly Cloudy
4:30 PM 75.2 °F 42.8 °F 31% 29.59 in 6.2 mi WSW 12.7 mph - N/A   Partly Cloudy
5:00 PM 75.2 °F 44.6 °F 34% 29.59 in 6.2 mi SSW 12.7 mph - N/A   Partly Cloudy
5:30 PM 71.6 °F 53.6 °F 53% 29.59 in 6.2 mi South 12.7 mph - N/A   Partly Cloudy
6:00 PM 71.6 °F 51.8 °F 50% 29.59 in 6.2 mi South 10.4 mph - N/A   Scattered Clouds
6:30 PM 71.6 °F 51.8 °F 50% 29.62 in 6.2 mi South 8.1 mph - N/A   Scattered Clouds
7:00 PM 68 °F 48 °F 38% 29.63 in 22 mi South 6.9 mph - -   Scattered Clouds
7:00 PM 68.0 °F 51.8 °F 56% 29.62 in 6.2 mi South 6.9 mph - N/A   Partly Cloudy
7:30 PM 66.2 °F 53.6 °F 64% 29.62 in 6.2 mi South 6.9 mph - N/A   Partly Cloudy
8:00 PM 64.4 °F 53.6 °F 68% 29.65 in - Calm Calm - N/A   Clear
8:30 PM 62.6 °F 53.6 °F 72% 29.65 in - Variable 1.2 mph - N/A   Clear
9:00 PM 64.4 °F 50.0 °F 59% 29.65 in - Variable 2.3 mph - N/A   Clear
9:30 PM 68.0 °F 44.6 °F 43% 29.68 in - West 3.5 mph - N/A   Clear
10:00 PM 62.6 °F 46.4 °F 55% 29.68 in - Variable 1.2 mph - N/A   Clear
10:30 PM 64.4 °F 46.4 °F 52% 29.68 in - Calm Calm - N/A   Clear
11:00 PM 64.4 °F 44.6 °F 49% 29.68 in - WSW 4.6 mph - N/A   Clear
11:30 PM 64.4 °F 44.6 °F 49% 29.68 in 6.2 mi West 8.1 mph - N/A   Partly Cloudy